Temperature
17 17 17 17 17 17 17 17 17 17 17 17 17 16 16 16 16 17 16 17 17 17 17 16 16 16 16 16 16 16 16 16 16 16 16 16 16 16 16 16 16 15 15
17 17 17 17 17 17 17 17 17 17 17 17 17 16 16 16 16 16 16 17 17 17 17 17 16 16 16 16 16 16 16 16 16 16 16 16 16 16 16 16 16 15 15
17 17 17 17 17 17 17 17 17 17 17 17 17 17 16 16 16 16 16 16 16 17 17 17 16 16 16 16 16 16 16 16 16 16 16 16 16 16 16 16 15 15 15
17 17 17 17 17 17 17 17 17 17 17 17 17 17 17 16 16 16 16 16 16 16 16 17 17 16 16 16 16 16 16 16 16 16 16 16 16 16 15 15 15 15 15
17 17 17 17 17 17 17 17 17 17 17 17 17 17 17 17 16 16 16 16 16 16 16 16 17 17 16 16 16 16 16 16 16 16 16 16 16 16 16 15 15 15 15
17 17 17 17 17 17 17 17 17 17 17 17 17 17 17 17 17 17 16 16 16 16 16 16 16 16 16 16 16 16 16 16 16 16 16 16 15 15 15 15 15 15 15
17 17 17 17 17 17 17 17 17 17 17 17 17 17 17 17 17 17 17 17 17 16 16 16 16 16 16 16 16 16 16 16 16 16 16 16 15 15 15 15 15 15 15
17 17 17 17 17 17 17 17 17 17 17 17 17 18 18 18 17 18 17 17 17 17 16 16 16 16 16 16 16 16 16 16 16 16 16 16 15 15 15 15 15 15 15
17 17 17 17 17 17 17 17 17 17 17 17 17 18 18 19 19 18 17 17 17 17 17 17 16 16 16 16 16 16 16 16 16 16 16 15 15 15 15 15 15 15 15
17 17 17 17 17 17 17 17 17 17 17 17 17 17 17 18 18 18 18 18 17 17 17 17 17 16 16 16 16 16 16 16 16 16 16 16 15 15 15 15 15 15 15
17 17 17 17 17 17 17 17 17 17 17 17 17 17 17 17 17 18 18 18 18 18 17 17 17 17 17 16 16 16 16 16 16 16 16 15 15 15 15 15 15 15 15
17 17 17 17 17 17 17 17 17 17 17 17 17 17 17 17 18 18 18 18 18 18 17 17 17 17 17 17 16 16 16 16 16 16 16 15 15 15 15 15 15 15 14
17 17 17 17 17 17 17 17 17 17 17 17 17 17 17 17 17 18 18 18 18 18 17 17 17 17 17 16 16 16 16 16 16 16 16 15 15 15 15 15 15 14 14
17 17 17 17 17 17 17 17 17 17 17 17 17 17 17 17 17 17 17 18 18 18 17 17 17 17 16 16 16 16 16 16 16 16 15 15 15 15 15 14 14 14 14
17 17 17 17 17 17 17 17 16 17 16 16 17 17 17 17 17 17 17 17 17 17 17 17 16 16 16 16 16 15 15 15 15 15 15 15 15 14 14 14 14 14 14
17 17 17 17 17 17 16 17 16 16 16 16 16 16 16 16 16 16 16 17 17 16 16 16 16 16 16 15 15 15 15 15 15 15 15 14 14 14 14 14 13 13 13
17 17 17 17 17 17 16 16 16 16 16 16 16 16 16 16 16 16 16 16 16 16 16 15 15 15 15 14 14 14 14 14 14 14 14 14 14 13 13 13 13 13 12
17 17 17 16 16 16 16 16 16 16 16 16 16 16 15 15 15 15 15 15 15 15 15 15 14 14 14 14 14 13 13 13 13 13 13 13 13 13 12 12 12 12 11
17 16 16 16 16 16 16 16 16 16 16 15 15 15 15 15 15 15 15 15 15 15 15 14 14 14 13 13 13 13 12 12 12 12 12 12 12 12 12 11 11 11 11
16 16 16 16 16 16 16 16 15 15 15 15 15 15 15 15 14 14 14 14 14 14 14 14 14 13 13 12 12 12 12 11 11 11 11 11 11 11 11 10 10 10 10
16 16 16 16 15 15 15 15 15 15 15 15 15 15 14 14 14 14 14 14 14 13 13 13 13 13 12 12 12 12 11 11 10 10 10 10 10 10 9 9 9 9 9
16 15 15 15 15 15 15 15 15 15 14 14 14 14 14 14 14 14 14 13 13 13 13 13 12 12 11 11 11 11 11 11 10 9 9 9 9 9 9 8 8 8 8
15 15 15 15 15 15 15 15 14 14 14 14 14 13 13 13 13 13 13 13 12 12 12 12 11 11 11 10 10 10 10 10 9 9 9 9 8 8 8 8 8 7 7
15 15 15 14 14 14 14 14 14 14 13 13 13 13 12 12 12 12 12 12 12 11 11 11 11 10 10 10 10 9 9 9 9 8 8 8 8 8 8 7 7 7 7
15 14 14 14 14 14 13 13 13 13 13 13 12 12 12 12 11 11 11 11 11 10 10 10 10 10 10 9 9 9 9 9 9 8 8 8 8 8 7 7 6 6 6
14 14 14 14 13 13 13 13 13 12 12 12 11 11 11 11 11 10 10 10 10 9 9 9 9 9 9 8 8 8 8 9 9 8 7 7 7 7 7 7 6 6 6
Wind_Speed
5 6 5 4 5 5 6 4 4 5 4 4 4 5 4 3 3 4 9 9 8 7 8 8 7 7 7 7 7 7 7 7 7 7 7 6 6 6 6 6 6 5 5
5 5 5 4 4 4 4 4 4 4 4 4 4 4 3 4 4 3 6 9 9 8 8 8 8 8 8 7 7 7 7 7 7 7 7 7 7 6 6 6 6 6 5
6 5 4 5 4 4 4 4 4 4 4 4 4 4 3 3 4 4 4 5 9 10 9 9 8 8 8 8 8 8 8 8 8 8 8 8 8 7 7 7 7 7 7
6 6 5 5 4 5 5 4 4 4 3 3 3 3 3 3 3 4 5 4 5 7 11 11 9 9 9 9 9 9 9 9 9 9 9 9 9 8 8 8 8 8 8
7 6 5 4 6 5 4 5 4 4 4 3 4 3 3 3 4 5 4 5 5 5 6 12 12 10 10 10 10 10 10 10 11 11 11 10 10 10 10 10 10 9 9
8 7 6 6 6 5 5 4 3 3 3 3 4 3 3 4 4 4 5 6 6 6 6 6 9 12 13 11 10 10 10 11 11 11 12 12 11 11 12 12 12 11 11
8 7 5 6 6 5 5 6 5 6 5 4 3 3 4 5 5 5 5 5 6 6 6 6 7 6 10 14 13 11 11 11 11 11 12 12 12 12 13 13 13 13 13
9 8 7 6 6 5 6 6 5 5 4 5 4 4 4 5 5 6 6 6 6 6 6 7 7 6 7 7 10 12 11 11 10 11 12 13 13 13 13 13 14 13 14
9 9 8 7 6 7 6 7 7 7 5 5 5 4 3 3 2 5 6 6 6 5 6 6 7 7 8 7 6 11 12 11 11 11 11 12 13 13 13 13 13 13 13
10 9 9 8 7 7 6 8 7 6 6 5 5 5 5 4 3 2 4 5 5 5 5 5 6 7 7 7 6 6 9 9 9 9 10 11 11 12 12 12 12 12 12
9 9 9 8 8 7 7 7 6 7 6 6 5 5 6 5 6 4 4 3 3 4 4 4 4 4 4 5 5 6 8 9 8 8 8 8 9 10 10 10 9 9 9
7 9 9 8 8 7 7 7 7 8 7 6 6 6 5 5 5 5 5 5 4 3 2 2 2 2 3 3 3 4 6 7 8 8 7 7 8 8 8 8 8 7 7
7 8 8 8 8 8 8 8 7 7 8 7 7 6 6 6 6 6 6 5 4 4 3 3 2 2 2 1 1 5 5 6 6 6 6 6 6 6 6 6 6 5 4
6 7 8 8 8 8 8 7 7 8 7 7 7 6 6 6 6 6 6 5 6 5 4 4 1 0 0 0 2 4 3 5 5 5 5 4 4 4 4 5 4 3 3
6 7 8 8 8 8 8 7 6 6 6 6 6 7 6 6 6 6 6 6 6 6 5 3 3 1 1 2 3 3 3 6 6 5 5 5 5 5 5 5 5 4 4
5 6 7 7 7 7 7 7 6 6 6 5 5 6 6 6 5 5 5 5 6 6 5 3 1 0 1 2 4 4 6 9 8 7 7 7 7 7 7 7 7 7 6
5 5 6 6 6 6 6 6 6 6 6 6 6 5 6 6 5 5 5 5 5 4 5 4 1 1 1 1 3 3 4 6 7 9 10 10 9 9 9 8 8 8 8
4 4 4 4 5 5 5 6 6 6 6 5 5 4 4 4 4 4 4 4 4 4 5 5 3 1 0 1 2 2 3 5 6 10 11 10 10 10 10 9 9 8 8
3 3 4 4 4 4 4 4 4 4 4 3 3 3 3 3 3 3 3 4 3 3 3 4 3 2 1 2 3 3 4 4 5 9 11 11 11 11 11 10 9 9 8
2 2 2 2 2 2 2 2 3 2 2 1 1 1 1 2 2 3 3 3 2 2 2 3 3 3 2 2 3 3 3 3 3 5 7 8 10 11 11 10 9 8 7
3 2 2 2 2 2 1 1 2 2 2 2 1 1 2 3 4 2 0 1 1 2 3 3 3 2 2 2 2 2 3 3 3 2 2 4 5 5 7 9 9 8 7
3 3 3 3 3 2 5 4 1 2 2 2 2 3 4 5 7 9 10 9 6 2 1 2 2 2 2 2 2 2 2 2 1 1 0 2 2 2 3 6 7 7 6
5 4 4 4 4 6 7 6 5 3 4 3 3 3 3 5 5 6 9 9 10 10 7 3 3 2 3 2 2 3 2 2 2 2 0 1 1 2 3 7 8 7 6
5 5 5 5 6 6 7 7 6 6 6 5 5 5 5 5 5 5 7 8 8 9 7 6 5 5 4 3 2 3 4 4 3 3 1 0 1 1 2 4 8 6 5
6 6 6 6 6 6 6 5 4 6 6 7 6 6 6 6 7 5 8 8 8 8 13 14 13 12 11 9 5 2 3 2 2 2 1 1 0 0 1 2 6 8 6
7 7 7 6 6 6 6 5 3 5 6 6 6 7 9 8 6 5 6 7 7 6 7 8 9 9 9 9 8 5 2 1 1 2 2 2 1 1 1 1 0 2 3
Wind_Direction
158 150 148 156 164 151 161 169 157 141 146 148 146 140 143 129 128 138 133 151 164 167 167 167 164 162 160 161 163 161 162 160 159 163 161 161 163 161 164 164 167 167 165
159 161 161 169 170 170 158 167 151 154 160 148 152 145 156 151 148 170 148 156 170 177 180 179 180 181 180 180 181 182 181 182 181 179 179 182 180 182 184 183 183 184 186
167 179 172 181 176 169 163 177 166 169 171 167 160 160 162 166 157 173 172 166 169 179 190 194 194 194 194 195 196 196 196 197 198 197 199 199 197 199 202 201 201 202 203
180 195 187 182 178 186 183 176 199 185 176 183 171 180 165 168 182 187 190 193 189 177 184 194 200 203 203 206 208 208 207 208 210 210 210 211 211 212 215 216 216 216 216
191 206 199 176 190 192 195 207 182 207 187 192 188 187 194 191 188 199 200 202 200 209 192 178 196 205 211 216 219 218 215 216 217 218 218 219 220 220 221 223 225 226 226
199 210 200 192 202 197 201 210 188 216 221 211 219 188 207 203 206 203 210 205 202 211 217 199 197 202 207 217 223 225 223 222 221 222 224 224 226 227 228 230 231 232 233
203 212 213 192 212 208 212 206 206 202 214 208 220 212 211 214 209 210 218 221 211 211 216 212 223 217 195 205 216 224 228 227 226 225 226 227 229 230 231 234 237 237 237
211 209 215 212 206 209 214 214 214 229 217 209 231 235 223 203 209 213 207 216 227 217 217 214 216 218 236 209 195 208 221 226 228 228 226 226 230 232 232 235 238 238 239
212 215 210 218 212 216 210 212 214 225 233 221 228 245 257 246 205 192 210 214 219 223 226 222 218 215 223 228 209 197 206 218 226 230 228 225 228 230 232 235 237 237 239
213 211 209 212 218 223 214 218 214 224 230 231 220 235 262 298 271 217 201 201 206 220 234 236 225 213 220 223 217 207 197 212 223 231 231 227 223 226 230 233 236 237 238
215 213 210 212 216 224 224 229 218 227 227 234 234 228 233 238 249 259 248 228 208 213 218 226 235 232 225 223 223 207 195 210 221 228 232 231 224 224 229 232 233 234 237
211 211 212 213 218 223 221 222 225 225 234 239 246 243 238 240 241 243 246 243 235 221 202 218 230 228 230 226 211 157 179 200 209 216 220 224 225 225 226 227 226 225 229
210 208 214 212 218 225 228 226 225 237 231 233 236 240 243 246 254 255 255 252 250 234 203 204 217 236 238 222 164 151 165 187 197 203 208 212 216 218 212 205 203 203 211
217 209 214 216 221 226 229 226 231 229 229 232 235 237 245 248 248 249 254 257 255 247 227 218 183 193 235 190 100 140 137 156 176 181 183 181 179 174 168 164 161 163 169
215 211 214 216 219 222 226 226 231 229 225 229 230 227 238 247 247 251 254 260 262 261 248 215 215 204 164 97 83 118 112 113 131 137 140 139 137 134 133 131 131 127 123
214 215 216 216 218 218 218 223 225 222 221 229 242 247 244 246 248 249 253 255 258 264 264 269 238 249 60 117 98 112 105 99 102 116 119 121 121 120 118 116 113 112 110
204 212 217 218 216 215 213 217 224 219 221 226 235 237 242 252 248 250 250 250 252 253 246 249 246 138 110 114 100 114 115 107 99 109 112 112 111 111 110 109 108 107 105
210 208 213 215 215 213 215 218 220 220 221 224 227 230 240 239 241 255 258 254 252 249 237 230 229 214 104 128 115 112 105 106 101 102 106 105 105 105 103 101 100 98 98
204 203 199 201 202 206 212 217 215 212 215 220 225 226 234 238 247 250 254 252 248 242 232 216 210 185 171 149 126 107 95 86 101 107 106 104 101 100 98 96 95 94 92
176 182 181 187 185 182 186 197 196 189 186 180 197 230 242 242 244 241 237 239 233 221 196 188 182 177 170 164 158 147 128 106 84 90 90 100 105 104 101 95 88 86 89
147 135 133 131 125 137 143 154 159 151 146 130 104 83 64 65 51 42 65 147 189 205 193 179 176 170 160 156 160 147 133 117 92 76 101 103 110 103 105 96 83 75 77
124 116 118 122 120 110 73 71 114 137 130 121 114 107 100 88 84 76 67 58 48 62 128 157 154 133 122 121 119 133 143 145 124 73 62 90 90 87 83 83 79 78 75
113 110 111 111 104 78 76 76 73 104 103 94 90 89 88 85 94 100 91 82 62 50 45 62 88 85 105 105 122 135 118 96 83 93 122 97 71 64 80 89 93 87 78
113 108 103 100 98 84 78 82 86 98 92 85 80 82 88 86 82 95 97 86 75 62 61 71 79 69 71 72 93 117 120 126 128 98 11 30 94 72 100 110 120 110 97
116 112 107 101 100 91 74 78 92 106 98 88 78 72 82 88 67 81 103 99 92 87 76 78 79 82 76 67 58 106 125 146 127 101 39 324 146 216 188 147 145 153 152
117 113 101 97 96 94 78 74 88 116 110 105 95 83 71 80 68 63 100 104 101 95 94 93 91 92 84 75 59 40 40 85 94 93 58 317 324 300 231 120 86 175 192
Height
1578 1579 1580 1582 1584 1585 1586 1586 1588 1588 1589 1589 1591 1591 1592 1592 1593 1595 1594 1593 1594 1594 1595 1596 1597 1597 1598 1599 1599 1600 1601 1602 1602 1603 1604 1604 1605 1605 1606 1606 1607 1607 1607
1578 1579 1580 1581 1584 1585 1586 1587 1588 1588 1590 1590 1591 1591 1592 1593 1593 1594 1595 1594 1594 1595 1595 1596 1597 1597 1598 1599 1600 1600 1601 1602 1602 1603 1604 1604 1605 1605 1606 1606 1606 1607 1607
1578 1579 1581 1582 1584 1585 1585 1587 1588 1589 1590 1591 1591 1591 1592 1593 1593 1594 1595 1595 1595 1595 1595 1596 1597 1597 1598 1599 1599 1600 1601 1601 1602 1603 1603 1604 1604 1605 1605 1606 1606 1606 1606
1577 1578 1581 1582 1583 1585 1586 1587 1588 1589 1590 1591 1591 1592 1592 1592 1593 1594 1595 1595 1596 1596 1595 1595 1596 1597 1597 1598 1598 1599 1600 1600 1601 1602 1602 1603 1603 1604 1604 1605 1605 1605 1605
1576 1578 1580 1581 1582 1584 1585 1587 1588 1589 1590 1590 1591 1591 1592 1592 1592 1593 1594 1595 1595 1595 1596 1595 1595 1596 1596 1597 1597 1598 1599 1599 1600 1600 1601 1602 1602 1602 1603 1603 1604 1604 1604
1575 1577 1579 1580 1582 1583 1584 1585 1586 1587 1588 1589 1590 1591 1591 1591 1592 1593 1593 1594 1594 1594 1595 1595 1594 1594 1595 1595 1596 1597 1597 1598 1598 1599 1599 1600 1600 1601 1601 1602 1602 1602 1602
1574 1576 1578 1579 1580 1582 1583 1584 1585 1586 1587 1588 1589 1590 1590 1590 1591 1591 1592 1593 1593 1593 1593 1593 1593 1594 1594 1594 1594 1595 1595 1596 1596 1597 1597 1598 1598 1599 1599 1599 1599 1600 1600
1572 1575 1576 1578 1579 1580 1581 1582 1584 1585 1587 1587 1588 1589 1589 1590 1589 1590 1590 1590 1591 1592 1592 1592 1592 1592 1592 1593 1593 1593 1593 1594 1594 1595 1595 1596 1596 1596 1596 1597 1597 1597 1597
1570 1572 1574 1576 1577 1579 1580 1580 1582 1583 1585 1586 1587 1588 1587 1587 1588 1588 1588 1589 1589 1590 1590 1590 1590 1590 1590 1591 1591 1591 1591 1592 1592 1592 1593 1593 1593 1593 1594 1594 1594 1594 1594
1568 1570 1572 1574 1575 1577 1578 1579 1580 1581 1582 1584 1584 1585 1586 1586 1587 1586 1587 1587 1587 1587 1588 1589 1589 1588 1588 1588 1588 1589 1589 1589 1590 1590 1590 1590 1590 1591 1591 1591 1591 1591 1591
1566 1568 1570 1571 1573 1574 1576 1577 1578 1579 1580 1581 1582 1583 1584 1584 1585 1585 1585 1586 1586 1586 1586 1586 1587 1587 1586 1586 1586 1587 1587 1587 1587 1587 1588 1588 1588 1588 1588 1588 1588 1588 1588
1564 1565 1567 1569 1570 1572 1573 1574 1575 1576 1578 1579 1579 1581 1581 1582 1582 1583 1583 1583 1583 1583 1583 1583 1584 1584 1584 1584 1584 1584 1584 1584 1584 1585 1585 1585 1585 1585 1585 1585 1585 1585 1585
1561 1563 1565 1566 1567 1569 1570 1571 1572 1574 1575 1575 1576 1578 1579 1579 1580 1580 1581 1580 1581 1581 1581 1581 1581 1581 1581 1581 1581 1580 1581 1581 1581 1581 1581 1581 1581 1581 1581 1581 1581 1581 1581
1559 1560 1561 1563 1564 1566 1567 1568 1570 1571 1571 1572 1574 1575 1575 1576 1577 1577 1578 1578 1578 1578 1578 1578 1578 1578 1578 1578 1578 1577 1577 1578 1578 1578 1578 1578 1578 1578 1578 1578 1578 1578 1578
1555 1557 1559 1560 1561 1563 1564 1565 1566 1567 1568 1569 1571 1571 1572 1573 1573 1574 1574 1575 1576 1574 1574 1574 1575 1575 1575 1575 1575 1575 1575 1574 1574 1574 1575 1575 1575 1575 1575 1575 1575 1575 1575
1552 1554 1556 1557 1558 1560 1561 1562 1563 1564 1565 1566 1566 1567 1568 1569 1569 1570 1570 1571 1571 1571 1570 1571 1571 1571 1571 1572 1571 1571 1571 1571 1571 1571 1571 1571 1571 1572 1572 1572 1571 1571 1571
1550 1552 1553 1554 1555 1557 1558 1558 1560 1560 1561 1562 1563 1563 1564 1564 1565 1566 1566 1566 1567 1567 1566 1566 1567 1567 1567 1567 1568 1568 1568 1568 1568 1568 1568 1568 1568 1568 1568 1568 1568 1568 1567
1548 1550 1551 1552 1553 1554 1554 1555 1556 1557 1558 1558 1559 1559 1560 1561 1560 1561 1562 1562 1562 1562 1563 1562 1563 1563 1563 1564 1564 1564 1565 1565 1565 1565 1565 1565 1565 1565 1565 1565 1565 1564 1564
1546 1548 1549 1550 1550 1551 1552 1553 1553 1554 1555 1555 1556 1556 1557 1557 1557 1557 1557 1558 1558 1558 1558 1559 1559 1559 1560 1561 1561 1561 1562 1562 1563 1562 1562 1562 1562 1562 1562 1562 1562 1561 1561
1544 1545 1546 1547 1548 1549 1550 1550 1551 1551 1552 1553 1553 1553 1554 1554 1554 1553 1554 1554 1554 1555 1555 1555 1556 1556 1557 1558 1559 1559 1559 1560 1560 1561 1560 1560 1560 1560 1560 1560 1559 1559 1559
1543 1544 1544 1545 1546 1547 1548 1548 1549 1549 1550 1550 1550 1550 1551 1551 1551 1551 1551 1551 1551 1552 1553 1553 1553 1554 1555 1555 1556 1556 1557 1558 1558 1559 1559 1559 1559 1559 1558 1557 1557 1557 1556
1541 1542 1543 1544 1545 1546 1546 1547 1547 1548 1548 1548 1548 1548 1548 1548 1548 1549 1549 1548 1549 1549 1550 1551 1551 1551 1552 1553 1553 1554 1555 1556 1556 1557 1557 1558 1558 1557 1557 1556 1555 1554 1554
1540 1541 1542 1543 1544 1544 1545 1546 1546 1546 1547 1547 1547 1547 1547 1547 1547 1547 1547 1547 1547 1547 1548 1549 1549 1550 1550 1551 1551 1552 1553 1554 1554 1555 1555 1556 1556 1556 1555 1554 1553 1552 1552
1540 1540 1541 1542 1543 1543 1545 1545 1546 1546 1546 1545 1546 1546 1546 1546 1546 1547 1547 1546 1546 1546 1546 1547 1548 1548 1549 1549 1550 1551 1552 1552 1553 1554 1554 1555 1554 1554 1554 1552 1551 1551 1550
1539 1540 1541 1541 1542 1543 1544 1544 1545 1545 1545 1545 1545 1546 1546 1546 1546 1546 1547 1546 1547 1547 1547 1547 1548 1548 1548 1549 1550 1551 1552 1552 1553 1553 1553 1553 1553 1553 1553 1552 1550 1549 1548
1539 1540 1540 1541 1542 1542 1543 1544 1544 1545 1544 1545 1545 1545 1546 1546 1546 1546 1547 1547 1547 1548 1549 1548 1548 1549 1549 1549 1549 1550 1551 1552 1552 1553 1552 1552 1552 1552 1552 1552 1551 1549 1548